Location: Seasalter
(51.3333°N, 1.0167°E)
Time: 19:49:27
(UTC+00:00)

Cosmos 2285 Rocket - Pass Details

Date: 26 September 2023
Orbit: 970 x 999 km, 74.0° (Epoch: 08 December)

Event Time Altitude Azimuth Distance (km) Brightness Sun altitude
Rises 04:23:48 0° 332° (NNW) 3,676 6.9 -13.8°
Reaches altitude 10° 04:26:24 10° 327° (NNW) 2,725 6.2 -13.4°
Maximum altitude 04:32:26 50° 255° (WSW) 1,222 4.1 -12.5°
Drops below altitude 10° 04:38:29 10° 181° (S) 2,721 6.2 -11.6°
Sets 04:41:05 0° 177° (S) 3,668 6.9 -11.2°
